User: anonymous   Login
Location: Meriden
(44.0740°N, 93.3870°W)
Time: 16:04:17
(UTC-05:00)
Language:

Hamsat - Orbit

View from above orbital plane
View from above orbital plane
View from above satellite
View from above satellite

Ground track
Ground track

The orbit data is extracted from the following two-line orbital elements,

1 28650U 05017B   16149.90367280  .00000577  00000-0  67956-4 0  9996
2 28650  97.6065 132.5112 0022847 326.6545  33.3232 14.88276191599001
Epoch (UTC): 28 May 2016 21:41:17
Eccentricity: 0.0022847
inclination: 97.6065°
perigee height: 587 km
apogee height: 619 km
right ascension of ascending node: 132.5112°
argument of perigee: 326.6545°
revolutions per day: 14.88276191
mean anomaly at epoch: 33.3232°
orbit number at epoch: 59900

The dashed part of the orbit path shows where the satellite is in the earth's shadow,  

DLR